TimeEST,TemperatureF,Dew PointF,Humidity,Sea Level PressureIn,VisibilityMPH,Wind Direction,Wind SpeedMPH,Gust SpeedMPH,PrecipitationIn,Events,Conditions,WindDirDegrees,DateUTC
12:14 AM,27.1,16.7,65,30.20,10.0,SSW,5.8,-,N/A,,Clear,210,2012-11-28 05:14:00
12:54 AM,27.5,18.0,67,30.20,10.0,SW,6.9,-,N/A,,Scattered Clouds,220,2012-11-28 05:54:00
1:15 AM,27.9,18.0,66,30.19,10.0,SW,5.8,-,N/A,,Mostly Cloudy,220,2012-11-28 06:15:00
1:35 AM,27.0,17.2,67,30.18,10.0,SW,6.9,-,N/A,,Scattered Clouds,230,2012-11-28 06:35:00
1:54 AM,26.8,16.7,66,30.18,10.0,SW,6.9,-,N/A,,Scattered Clouds,230,2012-11-28 06:54:00
2:15 AM,26.4,16.3,66,30.18,10.0,WSW,6.9,-,N/A,,Mostly Cloudy,240,2012-11-28 07:15:00
2:35 AM,26.4,15.8,64,30.18,10.0,SW,8.1,-,N/A,,Mostly Cloudy,230,2012-11-28 07:35:00
2:54 AM,27.3,15.8,62,30.18,10.0,SW,5.8,-,N/A,,Mostly Cloudy,220,2012-11-28 07:54:00
3:15 AM,28.0,15.6,60,30.18,10.0,SW,5.8,-,N/A,,Overcast,220,2012-11-28 08:15:00
3:35 AM,28.0,15.8,60,30.18,10.0,WSW,6.9,-,N/A,,Overcast,240,2012-11-28 08:35:00
3:54 AM,28.4,15.8,59,30.17,10.0,SW,8.1,-,N/A,,Overcast,230,2012-11-28 08:54:00
4:15 AM,29.3,16.0,58,30.17,10.0,WSW,9.2,-,N/A,,Overcast,240,2012-11-28 09:15:00
4:35 AM,29.5,16.7,59,30.17,10.0,WSW,8.1,-,N/A,,Overcast,240,2012-11-28 09:35:00
4:54 AM,29.3,16.9,60,30.17,10.0,WSW,6.9,-,N/A,,Overcast,240,2012-11-28 09:54:00
5:15 AM,29.1,16.9,60,30.17,10.0,WSW,5.8,-,N/A,,Overcast,240,2012-11-28 10:15:00
5:34 AM,29.1,17.1,61,30.17,10.0,WSW,5.8,-,N/A,,Overcast,240,2012-11-28 10:34:00
5:54 AM,28.2,16.7,62,30.18,10.0,WSW,6.9,-,N/A,,Mostly Cloudy,250,2012-11-28 10:54:00
6:15 AM,27.5,16.7,64,30.19,10.0,WSW,6.9,-,N/A,,Scattered Clouds,250,2012-11-28 11:15:00
6:34 AM,28.4,17.4,63,30.20,10.0,West,6.9,-,N/A,,Mostly Cloudy,260,2012-11-28 11:34:00
6:55 AM,29.1,17.1,61,30.20,10.0,West,9.2,-,N/A,,Overcast,260,2012-11-28 11:55:00
7:15 AM,27.3,16.3,63,30.20,10.0,WSW,6.9,-,N/A,,Mostly Cloudy,250,2012-11-28 12:15:00
7:34 AM,26.6,16.3,65,30.21,10.0,WSW,6.9,-,N/A,,Clear,250,2012-11-28 12:34:00
7:55 AM,25.7,16.0,67,30.22,10.0,WSW,5.8,-,N/A,,Clear,250,2012-11-28 12:55:00
8:15 AM,26.1,16.5,67,30.23,10.0,WSW,5.8,-,N/A,,Clear,250,2012-11-28 13:15:00
8:34 AM,28.4,17.4,63,30.23,10.0,WSW,6.9,-,N/A,,Mostly Cloudy,250,2012-11-28 13:34:00
8:55 AM,28.6,18.1,65,30.24,10.0,WSW,5.8,-,N/A,,Overcast,250,2012-11-28 13:55:00
9:15 AM,29.5,18.5,64,30.24,10.0,WSW,6.9,-,N/A,,Mostly Cloudy,250,2012-11-28 14:15:00
9:34 AM,31.3,20.1,63,30.25,10.0,WSW,8.1,-,N/A,,Scattered Clouds,250,2012-11-28 14:34:00
9:55 AM,32.9,21.2,62,30.25,10.0,West,8.1,-,N/A,,Scattered Clouds,270,2012-11-28 14:55:00
10:14 AM,34.2,21.9,61,30.26,10.0,West,12.7,19.6,N/A,,Clear,270,2012-11-28 15:14:00
10:34 AM,35.6,22.5,59,30.27,10.0,West,9.2,20.7,N/A,,Mostly Cloudy,260,2012-11-28 15:34:00
10:55 AM,34.7,23.0,62,30.28,10.0,West,12.7,18.4,N/A,,Overcast,280,2012-11-28 15:55:00
11:14 AM,35.4,23.0,61,30.27,10.0,WNW,10.4,16.1,N/A,,Overcast,300,2012-11-28 16:14:00
11:34 AM,37.0,22.6,56,30.27,10.0,West,13.8,17.3,N/A,,Mostly Cloudy,280,2012-11-28 16:34:00
11:55 AM,35.8,21.9,57,30.26,10.0,West,11.5,-,N/A,,Mostly Cloudy,280,2012-11-28 16:55:00
12:14 PM,35.8,22.3,58,30.27,10.0,West,10.4,-,N/A,,Overcast,280,2012-11-28 17:14:00
12:35 PM,36.9,22.6,56,30.26,10.0,West,12.7,16.1,N/A,,Overcast,260,2012-11-28 17:35:00
12:54 PM,37.8,21.6,52,30.26,10.0,West,12.7,19.6,N/A,,Overcast,260,2012-11-28 17:54:00
1:15 PM,37.8,21.0,51,30.25,10.0,West,11.5,-,N/A,,Mostly Cloudy,270,2012-11-28 18:15:00
1:34 PM,37.4,21.2,52,30.24,10.0,West,9.2,-,N/A,,Mostly Cloudy,280,2012-11-28 18:34:00
1:54 PM,37.4,21.4,52,30.25,10.0,West,10.4,-,N/A,,Scattered Clouds,270,2012-11-28 18:54:00
2:15 PM,38.3,20.8,50,30.24,10.0,West,10.4,-,N/A,,Clear,270,2012-11-28 19:15:00
2:34 PM,40.6,18.9,42,30.24,10.0,West,15.0,18.4,N/A,,Scattered Clouds,280,2012-11-28 19:34:00
2:54 PM,39.9,18.7,42,30.23,10.0,WSW,11.5,19.6,N/A,,Scattered Clouds,250,2012-11-28 19:54:00
3:15 PM,38.7,19.2,46,30.23,10.0,WSW,11.5,-,N/A,,Scattered Clouds,250,2012-11-28 20:15:00
3:34 PM,39.2,18.9,44,30.23,10.0,West,10.4,16.1,N/A,,Clear,270,2012-11-28 20:34:00
3:55 PM,39.6,17.4,41,30.24,10.0,West,13.8,18.4,N/A,,Clear,270,2012-11-28 20:55:00
4:14 PM,39.2,17.4,41,30.24,10.0,West,11.5,17.3,N/A,,Clear,270,2012-11-28 21:14:00
4:34 PM,37.9,15.8,41,30.25,10.0,West,10.4,16.1,N/A,,Clear,270,2012-11-28 21:34:00
4:55 PM,36.9,15.3,41,30.25,10.0,West,11.5,17.3,N/A,,Clear,270,2012-11-28 21:55:00
5:14 PM,35.8,14.5,42,30.25,10.0,West,11.5,18.4,N/A,,Clear,270,2012-11-28 22:14:00
5:35 PM,34.9,14.9,44,30.26,10.0,West,11.5,17.3,N/A,,Clear,270,2012-11-28 22:35:00
5:55 PM,33.3,15.1,47,30.27,10.0,West,6.9,-,N/A,,Clear,260,2012-11-28 22:55:00
6:14 PM,32.2,15.8,51,30.27,10.0,West,5.8,-,N/A,,Clear,270,2012-11-28 23:14:00
6:35 PM,32.0,15.8,51,30.27,10.0,West,8.1,-,N/A,,Clear,270,2012-11-28 23:35:00
6:55 PM,31.1,15.8,53,30.27,10.0,West,5.8,-,N/A,,Clear,260,2012-11-28 23:55:00
7:14 PM,30.0,15.8,56,30.28,10.0,WSW,4.6,-,N/A,,Clear,250,2012-11-29 00:14:00
7:35 PM,29.8,15.6,56,30.28,10.0,WSW,3.5,-,N/A,,Clear,250,2012-11-29 00:35:00
7:55 PM,30.0,15.6,55,30.28,10.0,West,4.6,-,N/A,,Clear,260,2012-11-29 00:55:00
8:14 PM,29.7,15.8,56,30.28,10.0,WSW,3.5,-,N/A,,Clear,250,2012-11-29 01:14:00
8:35 PM,29.3,15.6,57,30.28,10.0,WSW,4.6,-,N/A,,Clear,240,2012-11-29 01:35:00
8:55 PM,28.0,15.8,60,30.28,10.0,WSW,4.6,-,N/A,,Clear,250,2012-11-29 01:55:00
9:14 PM,28.2,16.3,61,30.28,10.0,WSW,4.6,-,N/A,,Clear,240,2012-11-29 02:14:00
9:35 PM,27.7,17.1,64,30.28,10.0,WSW,4.6,-,N/A,,Clear,250,2012-11-29 02:35:00
9:54 PM,29.1,17.8,63,30.28,10.0,Calm,Calm,-,N/A,,Clear,0,2012-11-29 02:54:00
10:14 PM,28.9,17.6,63,30.28,10.0,Calm,Calm,-,N/A,,Clear,0,2012-11-29 03:14:00
10:35 PM,28.6,18.5,66,30.27,10.0,SSW,3.5,-,N/A,,Clear,200,2012-11-29 03:35:00
10:54 PM,28.4,18.5,66,30.27,10.0,Calm,Calm,-,N/A,,Clear,0,2012-11-29 03:54:00
11:15 PM,28.2,18.7,67,30.26,10.0,SSW,3.5,-,N/A,,Clear,210,2012-11-29 04:15:00
11:35 PM,28.4,19.0,68,30.26,10.0,SSW,3.5,-,N/A,,Clear,210,2012-11-29 04:35:00
11:54 PM,28.0,19.6,71,30.26,10.0,SSW,3.5,-,N/A,,Clear,210,2012-11-29 04:54:00